"Period start","avg(HW err(1)/warn(2) (#))","avg(Visibility (m))","avg(Weather code (#))","avg(Precip intensity (mm/h))","min(HW err(1)/warn(2) (#))","max(HW err(1)/warn(2) (#))","std(HW err(1)/warn(2) (#))","med(HW err(1)/warn(2) (#))","min(Visibility (m))","max(Visibility (m))","std(Visibility (m))","med(Visibility (m))","min(Weather code (#))","max(Weather code (#))","std(Weather code (#))","med(Weather code (#))","min(Precip intensity (mm/h))","max(Precip intensity (mm/h))","std(Precip intensity (mm/h))","med(Precip intensity (mm/h))"
2017-02-10 00:00:00,2,42861,0,0.00,2,2,0,2,36490,47657,2756,43312,0,0,0,0,0.00,0.00,0.00,0.00
2017-02-10 00:10:00,2,43252,0,0.00,2,2,0,2,35835,50000,4155,44151,0,0,0,0,0.00,0.00,0.00,0.00
2017-02-10 00:20:00,2,47007,0,0.00,2,2,0,2,41529,50000,3174,48404,0,0,0,0,0.00,0.00,0.00,0.00
2017-02-10 00:30:00,2,39592,0,0.00,2,2,0,2,33532,46617,3550,39508,0,0,0,0,0.00,0.00,0.00,0.00
2017-02-10 00:40:00,2,38532,0,0.00,2,2,0,2,30735,44599,4171,38735,0,0,0,0,0.00,0.00,0.00,0.00
2017-02-10 00:50:00,2,41476,0,0.00,2,2,0,2,32693,50000,5033,40734,0,0,0,0,0.00,0.00,0.00,0.00
2017-02-10 01:00:00,2,42618,0,0.00,2,2,0,2,36191,50000,3660,43669,0,0,0,0,0.00,0.00,0.00,0.00
2017-02-10 01:10:00,2,42686,0,0.00,2,2,0,2,36891,49077,3887,41506,0,0,0,0,0.00,0.00,0.00,0.00
2017-02-10 01:20:00,2,38626,0,0.00,2,2,0,2,31760,45171,4196,38517,0,0,0,0,0.00,0.00,0.00,0.00
2017-02-10 01:30:00,2,44620,0,0.00,2,2,0,2,38769,50000,4345,43357,0,0,0,0,0.00,0.00,0.00,0.00
2017-02-10 01:40:00,2,44820,0,0.00,2,2,0,2,40381,50000,2991,43942,0,0,0,0,0.00,0.00,0.00,0.00
2017-02-10 01:50:00,2,46741,0,0.00,2,2,0,2,40029,50000,3541,47792,0,0,0,0,0.00,0.00,0.00,0.00
2017-02-10 02:00:00,2,49121,0,0.00,2,2,0,2,45874,50000,1466,49840,0,0,0,0,0.00,0.00,0.00,0.00
2017-02-10 02:10:00,2,48452,0,0.00,2,2,0,2,42438,50000,2458,50000,0,0,0,0,0.00,0.00,0.00,0.00
2017-02-10 02:20:00,2,49700,0,0.00,2,2,0,2,47992,50000,642,50000,0,0,0,0,0.00,0.00,0.00,0.00
2017-02-10 02:30:00,2,46695,0,0.00,2,2,0,2,36823,50000,3875,47008,0,0,0,0,0.00,0.00,0.00,0.00
2017-02-10 02:40:00,2,46651,0,0.00,2,2,0,2,35919,50000,4910,48957,0,0,0,0,0.00,0.00,0.00,0.00
2017-02-10 02:50:00,2,50000,0,0.00,2,2,0,2,50000,50000,0,50000,0,0,0,0,0.00,0.00,0.00,0.00
2017-02-10 03:00:00,1,50000,0,0.00,1,2,0,1,50000,50000,0,50000,0,0,0,0,0.00,0.00,0.00,0.00
2017-02-10 03:10:00,1,,,,1,1,0,1,,,,,,,,,,,,
2017-02-10 03:20:00,1,,,,1,1,0,1,,,,,,,,,,,,
2017-02-10 03:30:00,1,,,,1,1,0,1,,,,,,,,,,,,
2017-02-10 03:40:00,1,0,,0.00,1,2,0,1,0,0,0,0,,,,,0.00,0.00,0.00,0.00
2017-02-10 03:50:00,1,0,,0.00,1,2,0,1,0,0,0,0,,,,,0.00,0.00,0.00,0.00
2017-02-10 04:00:00,1,50000,,0.00,1,2,0,1,50000,50000,0,50000,,,,,0.00,0.00,0.00,0.00
2017-02-10 04:10:00,1,25000,,0.00,1,2,0,1,0,50000,25000,25000,,,,,0.00,0.00,0.00,0.00
2017-02-10 04:20:00,2,49505,0,0.00,2,2,0,2,46422,50000,1092,50000,0,0,0,0,0.00,0.00,0.00,0.00
2017-02-10 04:30:00,2,48225,0,0.00,2,2,0,2,43022,50000,2555,49775,0,0,0,0,0.00,0.00,0.00,0.00
2017-02-10 04:40:00,2,47591,0,0.00,2,2,0,2,42286,50000,2786,49028,0,0,0,0,0.00,0.00,0.00,0.00
2017-02-10 04:50:00,2,34368,0,0.00,2,2,0,2,25194,47752,7495,34368,0,0,0,0,0.00,0.00,0.00,0.00
2017-02-10 05:00:00,2,18163,0,0.00,1,2,0,2,0,32378,10952,20616,0,0,0,0,0.00,0.00,0.00,0.00
2017-02-10 05:10:00,1,0,,0.00,1,2,0,1,0,0,0,0,,,,,0.00,0.00,0.00,0.00
2017-02-10 05:20:00,1,0,,0.00,1,2,0,1,0,0,0,0,,,,,0.00,0.00,0.00,0.00
2017-02-10 05:30:00,1,,,,1,1,0,1,,,,,,,,,,,,
2017-02-10 05:40:00,1,,,,1,1,0,1,,,,,,,,,,,,
2017-02-10 05:50:00,1,,,,1,1,0,1,,,,,,,,,,,,
2017-02-10 06:00:00,1,,,,1,1,0,1,,,,,,,,,,,,
2017-02-10 06:10:00,1,,,,1,1,0,1,,,,,,,,,,,,
2017-02-10 06:20:00,1,0,,0.00,1,2,0,1,0,0,0,0,,,,,0.00,0.00,0.00,0.00
2017-02-10 06:30:00,1,,,,1,1,0,1,,,,,,,,,,,,
2017-02-10 06:40:00,2,47027,0,0.00,1,2,0,2,42118,50000,2920,48510,0,0,0,0,0.00,0.00,0.00,0.00
2017-02-10 06:50:00,2,44967,0,0.00,2,2,0,2,34785,50000,4882,46174,0,0,0,0,0.00,0.00,0.00,0.00
2017-02-10 07:00:00,2,47322,0,0.00,1,2,0,2,41117,50000,3400,49262,0,0,0,0,0.00,0.00,0.00,0.00
2017-02-10 07:10:00,1,,,,1,1,0,1,,,,,,,,,,,,
2017-02-10 07:20:00,1,25000,,0.00,1,2,0,1,0,50000,25000,25000,,,,,0.00,0.00,0.00,0.00
2017-02-10 07:30:00,1,,,,1,1,0,1,,,,,,,,,,,,
2017-02-10 07:40:00,1,,,,1,1,0,1,,,,,,,,,,,,
2017-02-10 07:50:00,1,,,,1,1,0,1,,,,,,,,,,,,
2017-02-10 08:00:00,1,,,,1,1,0,1,,,,,,,,,,,,
2017-02-10 08:10:00,1,,,,1,1,0,1,,,,,,,,,,,,
2017-02-10 08:20:00,1,,,,1,1,0,1,,,,,,,,,,,,
2017-02-10 08:30:00,1,45819,,0.00,1,2,0,1,44776,46862,1043,45819,,,,,0.00,0.00,0.00,0.00
2017-02-10 08:40:00,2,38430,0,0.00,1,2,0,2,0,50000,15093,42344,0,0,0,0,0.00,0.00,0.00,0.00
2017-02-10 08:50:00,1,,,,1,1,0,1,,,,,,,,,,,,
2017-02-10 09:00:00,2,26618,,0.00,1,2,0,2,0,35701,13646,34621,,,,,0.00,0.00,0.00,0.00
2017-02-10 09:10:00,2,23258,0,0.00,2,2,0,2,18270,27393,2823,23512,0,0,0,0,0.00,0.00,0.00,0.00
2017-02-10 09:20:00,2,16918,53,0.00,2,2,0,2,14914,18761,1142,17154,0,78,35,74,0.00,0.00,0.00,0.00
2017-02-10 09:30:00,2,17014,78,0.00,2,2,0,2,16050,19084,926,16741,78,78,0,78,0.00,0.00,0.00,0.00
2017-02-10 09:40:00,2,14350,78,0.01,2,2,0,2,12774,16487,1216,14138,78,78,0,78,0.00,0.05,0.02,0.00
2017-02-10 09:50:00,2,15973,78,0.00,2,2,0,2,12843,19537,1689,15960,78,78,0,78,0.00,0.00,0.00,0.00
2017-02-10 10:00:00,2,10728,78,0.11,2,2,0,2,5378,15589,3339,10100,78,78,0,78,0.00,0.30,0.09,0.12
2017-02-10 10:10:00,2,5294,77,0.21,2,2,0,2,4662,5823,351,5379,77,77,0,77,0.10,0.40,0.08,0.20
2017-02-10 10:20:00,2,5652,77,0.17,2,2,0,2,4844,6064,330,5702,77,78,0,77,0.15,0.25,0.03,0.15
2017-02-10 10:30:00,2,6740,78,0.06,2,2,0,2,5633,8795,883,6538,78,78,0,78,0.00,0.15,0.04,0.05
2017-02-10 10:40:00,2,10881,78,0.01,2,2,0,2,8508,13015,1657,11450,78,78,0,78,0.00,0.05,0.02,0.00
2017-02-10 10:50:00,2,11617,78,0.00,1,2,0,2,10833,12661,579,11598,78,78,0,78,0.00,0.00,0.00,0.00
2017-02-10 11:00:00,2,4626,78,0.00,1,2,0,2,0,8209,3790,7227,78,78,0,78,0.00,0.00,0.00,0.00
2017-02-10 11:10:00,2,6058,78,0.04,2,2,0,2,5025,7144,540,6076,78,78,0,78,0.00,0.05,0.02,0.05
2017-02-10 11:20:00,2,5466,78,0.01,1,2,0,2,4798,6097,418,5596,78,78,0,78,0.00,0.05,0.02,0.00
2017-02-10 11:30:00,1,0,78,0.00,1,2,0,1,0,0,0,0,78,78,0,78,0.00,0.00,0.00,0.00
2017-02-10 11:40:00,1,0,78,0.00,1,2,0,1,0,0,0,0,78,78,0,78,0.00,0.00,0.00,0.00
2017-02-10 11:50:00,1,9214,78,0.00,1,2,0,1,9214,9214,0,9214,78,78,0,78,0.00,0.00,0.00,0.00
2017-02-10 12:00:00,2,9474,78,0.00,2,2,0,2,8492,9982,446,9586,78,78,0,78,0.00,0.00,0.00,0.00
2017-02-10 12:10:00,2,8517,78,0.00,2,2,0,2,7602,9490,589,8426,78,78,0,78,0.00,0.00,0.00,0.00
2017-02-10 12:20:00,2,6148,78,0.00,2,2,0,2,4410,7327,792,6300,78,78,0,78,0.00,0.00,0.00,0.00
2017-02-10 12:30:00,2,6658,78,0.00,2,2,0,2,5550,7215,477,6816,78,78,0,78,0.00,0.00,0.00,0.00
2017-02-10 12:40:00,2,7014,78,0.00,2,2,0,2,5362,8577,1132,7167,78,78,0,78,0.00,0.00,0.00,0.00
2017-02-10 12:50:00,2,6742,78,0.00,2,2,0,2,3881,8790,1387,6870,78,78,0,78,0.00,0.00,0.00,0.00
2017-02-10 13:00:00,2,9529,17,0.00,2,2,0,2,6131,12420,1633,9440,10,78,20,10,0.00,0.00,0.00,0.00
2017-02-10 13:10:00,2,8244,10,0.00,2,2,0,2,6531,10880,1280,8222,10,10,0,10,0.00,0.00,0.00,0.00
2017-02-10 13:20:00,2,10063,10,0.00,2,2,0,2,5152,13046,2269,10638,10,10,0,10,0.00,0.00,0.00,0.00
2017-02-10 13:30:00,2,12180,5,0.00,2,2,0,2,10441,15095,1624,11107,0,10,5,5,0.00,0.00,0.00,0.00
2017-02-10 13:40:00,2,9349,0,0.00,2,2,0,2,8559,11015,783,9142,0,0,0,0,0.00,0.00,0.00,0.00
2017-02-10 13:50:00,2,8114,9,0.00,2,2,0,2,6921,8945,606,8332,0,10,3,10,0.00,0.00,0.00,0.00
2017-02-10 14:00:00,2,5634,10,0.00,2,2,0,2,4162,7455,1117,5230,10,10,0,10,0.00,0.00,0.00,0.00
2017-02-10 14:10:00,2,6759,10,0.00,2,2,0,2,5311,7970,702,6888,10,10,0,10,0.00,0.00,0.00,0.00
2017-02-10 14:20:00,2,5119,10,0.00,2,2,0,2,3246,8710,1433,5063,10,10,0,10,0.00,0.00,0.00,0.00
2017-02-10 14:30:00,2,4040,10,0.00,2,2,0,2,1583,7357,1722,4072,10,10,0,10,0.00,0.00,0.00,0.00
2017-02-10 14:40:00,2,3957,63,0.01,2,2,0,2,1943,5747,1077,3900,10,78,27,78,0.00,0.05,0.02,0.00
2017-02-10 14:50:00,1,5431,33,0.00,1,2,0,1,4086,7672,1595,4535,10,78,32,10,0.00,0.00,0.00,0.00
2017-02-10 15:00:00,1,,,,1,1,0,1,,,,,,,,,,,,
2017-02-10 15:10:00,1,0,,0.00,1,2,0,1,0,0,0,0,,,,,0.00,0.00,0.00,0.00
2017-02-10 15:20:00,2,21485,8,0.00,2,2,0,2,0,26965,7477,23656,0,10,4,10,0.00,0.00,0.00,0.00
2017-02-10 15:30:00,2,24886,0,0.00,2,2,0,2,23389,27815,1369,24378,0,0,0,0,0.00,0.00,0.00,0.00
2017-02-10 15:40:00,2,22913,0,0.00,1,2,0,2,0,27280,9382,27058,0,0,0,0,0.00,0.00,0.00,0.00
2017-02-10 15:50:00,1,,,,1,1,0,1,,,,,,,,,,,,
2017-02-10 16:00:00,1,0,,0.00,1,2,0,1,0,0,0,0,,,,,0.00,0.00,0.00,0.00
2017-02-10 16:10:00,1,,,,1,1,0,1,,,,,,,,,,,,
2017-02-10 16:20:00,1,0,,0.00,1,2,0,1,0,0,0,0,,,,,0.00,0.00,0.00,0.00
2017-02-10 16:30:00,1,,,,1,1,0,1,,,,,,,,,,,,
2017-02-10 16:40:00,1,,,,1,1,0,1,,,,,,,,,,,,
2017-02-10 16:50:00,1,,,,1,1,0,1,,,,,,,,,,,,
2017-02-10 17:00:00,1,,,,1,1,0,1,,,,,,,,,,,,
2017-02-10 17:10:00,1,17677,,0.00,1,2,0,1,16185,19594,1424,17251,,,,,0.00,0.00,0.00,0.00
2017-02-10 17:20:00,2,19669,0,0.00,2,2,0,2,16535,21313,1430,19874,0,0,0,0,0.00,0.00,0.00,0.00
2017-02-10 17:30:00,2,21376,0,0.00,2,2,0,2,19589,22427,1000,21446,0,0,0,0,0.00,0.00,0.00,0.00
2017-02-10 17:40:00,2,20380,0,0.00,2,2,0,2,18243,23050,1491,19860,0,0,0,0,0.00,0.00,0.00,0.00
2017-02-10 17:50:00,2,20839,0,0.00,2,2,0,2,18899,24717,1429,20758,0,0,0,0,0.00,0.00,0.00,0.00
2017-02-10 18:00:00,2,13003,0,0.00,2,2,0,2,8679,17772,2696,13012,0,0,0,0,0.00,0.00,0.00,0.00
2017-02-10 18:10:00,2,8629,4,0.00,2,2,0,2,3065,14472,3445,8968,0,10,5,0,0.00,0.00,0.00,0.00
2017-02-10 18:20:00,2,7875,10,0.00,2,2,0,2,5744,10289,1148,7644,10,10,0,10,0.00,0.00,0.00,0.00
2017-02-10 18:30:00,2,8337,10,0.00,2,2,0,2,5048,10319,1389,8530,10,10,0,10,0.00,0.00,0.00,0.00
2017-02-10 18:40:00,2,9128,10,0.00,2,2,0,2,6772,11190,1179,9258,10,10,0,10,0.00,0.00,0.00,0.00
2017-02-10 18:50:00,2,11424,10,0.00,2,2,0,2,8002,14316,1993,12270,10,10,0,10,0.00,0.00,0.00,0.00
2017-02-10 19:00:00,2,14103,0,0.00,2,2,0,2,10370,15158,1353,14610,0,0,0,0,0.00,0.00,0.00,0.00
2017-02-10 19:10:00,2,13730,0,0.00,2,2,0,2,10266,16405,1777,13700,0,0,0,0,0.00,0.00,0.00,0.00
2017-02-10 19:20:00,2,12318,0,0.00,2,2,0,2,8871,15263,2165,12262,0,0,0,0,0.00,0.00,0.00,0.00
2017-02-10 19:30:00,2,7845,2,0.00,2,2,0,2,4334,12189,2541,7480,0,10,4,0,0.00,0.00,0.00,0.00
2017-02-10 19:40:00,2,3436,10,0.00,2,2,0,2,1727,7176,1651,3025,10,10,0,10,0.00,0.00,0.00,0.00
2017-02-10 19:50:00,2,2281,63,0.01,2,2,0,2,1594,3418,648,1962,10,78,26,77,0.00,0.05,0.02,0.00
2017-02-10 20:00:00,2,1834,78,0.03,2,2,0,2,727,3197,781,1965,78,78,0,78,0.00,0.15,0.05,0.00
2017-02-10 20:10:00,2,1290,76,0.56,2,2,0,2,266,3374,929,1077,71,78,3,78,0.00,2.60,0.86,0.08
2017-02-10 20:20:00,2,1738,75,0.11,2,2,0,2,452,2991,713,1583,71,78,3,77,0.00,0.60,0.19,0.00
2017-02-10 20:30:00,2,2290,70,0.09,1,2,0,2,1038,4930,1400,1370,20,78,20,78,0.00,0.40,0.13,0.05
2017-02-10 20:40:00,1,1235,76,0.01,1,2,0,1,0,3189,1336,876,71,78,3,78,0.00,0.05,0.02,0.00
2017-02-10 20:50:00,1,,,,1,1,0,1,,,,,,,,,,,,
2017-02-10 21:00:00,1,0,77,0.15,1,2,0,1,0,0,0,0,77,77,0,77,0.15,0.15,0.00,0.15
2017-02-10 21:10:00,1,,,,1,1,0,1,,,,,,,,,,,,
2017-02-10 21:20:00,1,,,,1,1,0,1,,,,,,,,,,,,
2017-02-10 21:30:00,1,,,,1,1,0,1,,,,,,,,,,,,
2017-02-10 21:40:00,1,,,,1,1,0,1,,,,,,,,,,,,
2017-02-10 21:50:00,1,,,,1,1,0,1,,,,,,,,,,,,
2017-02-10 22:00:00,1,,,,1,1,0,1,,,,,,,,,,,,
2017-02-10 22:10:00,1,,,,1,1,0,1,,,,,,,,,,,,
2017-02-10 22:20:00,1,,,,1,1,0,1,,,,,,,,,,,,
2017-02-10 22:30:00,1,,,,1,1,0,1,,,,,,,,,,,,
2017-02-10 22:40:00,1,,,,1,1,0,1,,,,,,,,,,,,
2017-02-10 22:50:00,1,,,,1,1,0,1,,,,,,,,,,,,
2017-02-10 23:00:00,1,,,,1,1,0,1,,,,,,,,,,,,
2017-02-10 23:10:00,1,,,,1,1,0,1,,,,,,,,,,,,
2017-02-10 23:20:00,1,,,,1,1,0,1,,,,,,,,,,,,
2017-02-10 23:30:00,1,,,,1,1,0,1,,,,,,,,,,,,
2017-02-10 23:40:00,1,,,,1,1,0,1,,,,,,,,,,,,
2017-02-10 23:50:00,1,,,,1,1,0,1,,,,,,,,,,,,
